Ramsay, MI

1:14 AM CDT on May 25, 2015 (GMT -0500)
Burt St. Wxr | | Change Station
CLOSE
Current Station
Personal Weather Station
Location: Ramsay, MI
Elevation: 1479 ft
Nearby Weather Stations

Elev 1479 ft 46.47 °N, 90.00 °W | Updated 10 seconds ago

Rain
Rain
56.7 °F
Feels Like 56.7 °F
N
0.0
Wind Variable Wind from ENE
Gusts 3.0 mph

Today
High -- | Low -- °F
--% Chance of Precip.
Yesterday
High -- | Low -- °F
Precip. -- in
5:16 AM 8:38 PM
Waxing Crescent, 46% visible
Pressure 29.87 in
Visibility 9.0 miles
Clouds Overcast 9500 ft
Dew Point 56 °F
Humidity 96%
Rainfall 0.02 in
Snow Depth Not available.
UV 0 out of 12
Pollen 8.10 out of 12
Air Quality Not available.
Flu Activity Sporadic
METAR KIWD 250555Z AUTO 08004KT 9SM OVC095 14/13 A2987 RMK AO1 10190 20140 402400060 57024

More Conditions Fewer Conditions

Pressure 29.87 in
Visibility 9.0 miles
Clouds Overcast 9500 ft
Dew Point 56 °F
Humidity 96%
Rainfall 0.02 in
Snow Depth Not available.
UV 0 out of 12
Pollen 8.10 out of 12
Air Quality Not available.
Flu Activity Sporadic
METAR KIWD 250555Z AUTO 08004KT 9SM OVC095 14/13 A2987 RMK AO1 10190 20140 402400060 57024

More Conditions Fewer Conditions

10-Day Weather Forecast

Almanac

Astronomy

May. 25, 2015 Rise Set
Actual Time
Civil Twilight
Nautical Twilight
Astronomical Twilight
Moon
Length of Visible Light
Length of Day
Tomorrow will be .
, % of the Moon is Illuminated

Today's Extremes

State Highs State Lows

Community

WunderPhotos

Upload Photos

1,823,957 photos uploaded!

WunderBlogs® & News

Nearby

Air Quality

  Air Quality AQ Index Pollutant
Not available.

Snow Depth

Station Depth Elevation

Earthquake Activity

City Distance Mag. Time & Date
Minimum magnitude displayed is 2.5.

Coastal Water Temperatures

Place Temperature

Stations

Nearby Weather Stations

Station Location Temp. Windchill Dew Point Humidity Wind Precip. Elev Updated Type